This is the latest recevied weather packets stored in our database for station/object WX5II-11. If no packets are shown the sender has not sent any weather packets the latest 10 day(s).
| Time | Temp. | Humidity | Pressure | Rain* | Wind** | Luminosity | Snow |
|---|---|---|---|---|---|---|---|
| 1788085097 | 24.44° C | 84% | 1006.7 hPa | 0 mm | - | - | - |
| 1788084498 | 24.44° C | 83% | 1006.4 hPa | 0 mm | - | - | - |
| 1788082096 | 25° C | 83% | 1006.7 hPa | 0 mm | - | - | - |
| 1788080292 | 25° C | 83% | 1006.4 hPa | 0 mm | - | - | - |
| 1788079693 | 25° C | 83% | 1006.4 hPa | 0 mm | - | - | - |
| 1788078492 | 25° C | 82% | 1006.4 hPa | 0 mm | - | - | - |
| 1788077892 | 25° C | 82% | 1006.7 hPa | 0 mm | - | - | - |
| 1788074890 | 25.56° C | 81% | 1006.7 hPa | 0 mm | - | - | - |
| 1788073087 | 25.56° C | 80% | 1007.1 hPa | 0 mm | - | - | - |
| 1788069485 | 26.11° C | 78% | 1007.4 hPa | 0 mm | - | - | - |
| 1788068284 | 26.11° C | 76% | 1007.4 hPa | 0 mm | - | - | - |
| 1788067682 | 26.11° C | 76% | 1007.4 hPa | 0 mm | - | - | - |
| 1788067080 | 26.67° C | 75% | 1007.4 hPa | 0 mm | - | - | - |
| 1788066482 | 26.67° C | 75% | 1007.4 hPa | 0 mm | - | - | - |
| 1788065879 | 26.67° C | 74% | 1007.4 hPa | 0 mm | - | - | - |
| 1788062276 | 27.78° C | 69% | 1007.4 hPa | 0 mm | - | - | - |
| 1788060476 | 27.78° C | 67% | 1007.4 hPa | 0 mm | - | - | - |
| 1788059874 | 28.33° C | 66% | 1007.4 hPa | 0 mm | - | - | - |
| 1788059274 | 28.33° C | 65% | 1007.1 hPa | 0 mm | - | - | - |
| 1788058673 | 28.33° C | 64% | 1007.1 hPa | 0 mm | - | - | - |
| 1788057472 | 28.89° C | 64% | 1006.7 hPa | 0 mm | - | - | - |
| 1788056873 | 28.89° C | 64% | 1006.7 hPa | 0 mm | - | - | - |
| 1788055071 | 30° C | 61% | 1006.4 hPa | 0 mm | - | - | - |
| 1788053869 | 30.56° C | 57% | 1006 hPa | 0 mm | - | - | - |
| 1787933756 | 34.44° C | 47% | 1008.8 hPa | 0 mm | - | - | - |
* Rain latest hour (hover to see other rain measurements)
** Current wind speed in m/s (hover to see current wind gust speed)